DW0602 Weather Reports


Display with metric or nautical units.
time (UTC)temp
F
wind
direction
speed
MPH
gust
MPH
rain 1hr
in
rain 24hr
in
rain mn
in
humidity
%
barometer
mb
20260901203639 82 267 3.0 9.0 0.00 0.00 0.00 28 1021.3
20260901203134 82 268 3.0 8.0 0.00 0.00 0.00 28 1021.4
20260901203023 82 180 3.0 9.0 0.00 0.00 0.00 28 1022.0
20260901202627 82 306 2.0 8.0 0.00 0.00 0.00 28 1021.4
20260901201615 81 281 2.0 7.0 0.00 0.00 0.00 30 1021.4
20260901201527 80 78 0.0 8.0 0.00 0.00 0.00 29 1022.2
20260901201109 80 113 3.0 8.0 0.00 0.00 0.00 29 1021.4
20260901200602 80 302 3.0 8.0 0.00 0.00 0.00 28 1021.5
20260901200058 80 115 3.0 7.0 0.00 0.00 0.00 31 1021.5
20260901200015 80 111 3.0 8.0 0.00 0.00 0.00 31 1022.4
20260901195550 81 139 3.0 8.0 0.00 0.00 0.00 30 1021.7
20260901195044 80 174 2.0 8.0 0.00 0.00 0.00 34 1021.7
20260901194515 79 82 1.0 7.0 0.00 0.00 0.00 34 1022.6
20260901194033 79 174 3.0 7.0 0.00 0.00 0.00 30 1021.8
20260901193528 79 110 2.0 7.0 0.00 0.00 0.00 35 1021.8
20260901193022 78 121 2.0 6.0 0.00 0.00 0.00 35 1021.9
20260901193004 78 157 1.0 9.0 0.00 0.00 0.00 35 1022.8
20260901192518 78 110 3.0 8.0 0.00 0.00 0.00 34 1022.0
20260901191517 79 79 2.0 7.0 0.00 0.00 0.00 38 1022.0
20260901191509 79 82 2.0 7.0 0.00 0.00 0.00 37 1022.8
20260901191016 79 97 2.0 6.0 0.00 0.00 0.00 36 1022.1
20260901190015 79 157 3.0 8.0 0.00 0.00 0.00 35 1022.1
20260901190008 79 108 2.0 8.0 0.00 0.00 0.00 35 1023.0
20260901185515 79 105 1.0 8.0 0.00 0.00 0.00 35 1022.3
20260901185014 79 271 2.0 8.0 0.00 0.00 0.00 36 1022.3
20260901184511 78 144 2.0 10.0 0.00 0.00 0.00 36 1023.1
20260901184012 78 136 3.0 9.0 0.00 0.00 0.00 36 1022.5
20260901183023 78 182 0.0 8.0 0.00 0.00 0.00 36 1023.2
20260901183013 78 153 2.0 7.0 0.00 0.00 0.00 36 1022.5
20260901182509 78 113 2.0 7.0 0.00 0.00 0.00 37 1022.5
20260901182009 78 56 2.0 7.0 0.00 0.00 0.00 37 1022.6
20260901181504 77 72 1.0 6.0 0.00 0.00 0.00 39 1023.2
20260901181006 78 200 2.0 5.0 0.00 0.00 0.00 38 1022.9
20260901180507 78 152 1.0 4.0 0.00 0.00 0.00 39 1022.9
20260901180009 77 67 1.0 4.0 0.00 0.00 0.00 38 1023.7
20260901180007 77 58 0.0 4.0 0.00 0.00 0.00 39 1023.0
20260901175507 77 103 1.0 3.0 0.00 0.00 0.00 39 1023.0
20260901175001 77 304 1.0 3.0 0.00 0.00 0.00 39 1023.1
20260901174510 75 78 0.0 5.0 0.00 0.00 0.00 43 1024.0
20260901174454 76 74 1.0 5.0 0.00 0.00 0.00 43 1023.2
20260901173442 75 243 1.0 5.0 0.00 0.00 0.00 42 1023.5
20260901173015 74 76 2.0 6.0 0.00 0.00 0.00 41 1024.1
20260901172937 75 72 1.0 5.0 0.00 0.00 0.00 40 1023.4
20260901172430 74 105 1.0 3.0 0.00 0.00 0.00 44 1023.5
20260901171924 73 44 0.0 3.0 0.00 0.00 0.00 45 1023.6
20260901171526 72 264 0.0 2.0 0.00 0.00 0.00 45 1024.3
20260901171418 72 275 0.0 2.0 0.00 0.00 0.00 47 1023.6
20260901170913 71 148 0.0 2.0 0.00 0.00 0.00 56 1023.7
20260901170407 70 270 0.0 0.0 0.00 0.00 0.00 56 1023.8
20260901170005 69 284 0.0 1.0 0.00 0.00 0.00 60 1024.5
20260901164849 67 99 0.0 3.0 0.00 0.00 0.00 67 1023.8
20260901164508 66 116 0.0 3.0 0.00 0.00 0.00 68 1024.5
20260901164342 67 113 0.0 3.0 0.00 0.00 0.00 68 1023.8
20260901163836 66 161 0.0 2.0 0.00 0.00 0.00 71 1023.8
20260901163331 65 124 0.0 1.0 0.00 0.00 0.00 71 1023.7
20260901163009 64 24 0.0 0.0 0.00 0.00 0.00 73 1024.2
20260901162824 65 72 0.0 0.0 0.00 0.00 0.00 73 1023.6
20260901162319 64 53 0.0 0.0 0.00 0.00 0.00 74 1023.7
20260901161518 63 19 0.0 2.0 0.00 0.00 0.00 79 1024.3
20260901161308 63 15 0.0 2.0 0.00 0.00 0.00 79 1023.6
20260901160809 63 15 0.0 2.0 0.00 0.00 0.00 78 1023.5
20260901160306 62 129 0.0 2.0 0.00 0.00 0.00 80 1023.6
20260901160024 62 109 0.0 2.0 0.00 0.00 0.00 80 1024.3
20260901155306 62 65 0.0 2.0 0.00 0.00 0.00 82 1023.5
20260901154804 61 144 0.0 0.0 0.00 0.00 0.00 82 1023.7
20260901154506 61 5 0.0 0.0 0.00 0.00 0.00 82 1024.3
20260901154302 61 1 0.0 0.0 0.00 0.00 0.00 84 1023.6
20260901153804 61 39 0.0 0.0 0.00 0.00 0.00 82 1023.6
20260901153302 61 39 0.0 0.0 0.00 0.00 0.00 83 1023.6
20260901153012 60 326 0.0 0.0 0.00 0.00 0.00 83 1024.3
20260901152759 60 285 0.0 0.0 0.00 0.00 0.00 83 1023.6
20260901152301 60 208 0.0 0.0 0.00 0.00 0.00 84 1023.6
20260901151801 60 70 0.0 0.0 0.00 0.00 0.00 85 1023.5
20260901151515 59 74 0.0 0.0 0.00 0.00 0.00 84 1024.2
20260901151257 60 70 0.0 0.0 0.00 0.00 0.00 85 1023.6
20260901150254 59 70 0.0 0.0 0.00 0.00 0.00 85 1023.6
20260901150020 59 76 0.0 0.0 0.00 0.00 0.00 85 1024.1
20260901145755 59 75 0.0 0.0 0.00 0.00 0.00 85 1023.5
20260901145255 59 75 0.0 2.0 0.00 0.00 0.00 86 1023.5
20260901144754 59 65 0.0 2.0 0.00 0.00 0.00 86 1023.4
20260901144528 58 117 0.0 0.0 0.00 0.00 0.00 87 1023.9
20260901144254 58 22 0.0 0.0 0.00 0.00 0.00 88 1023.4
20260901143753 58 17 0.0 0.0 0.00 0.00 0.00 87 1023.4
20260901143254 58 17 0.0 0.0 0.00 0.00 0.00 87 1023.4
20260901143012 58 24 0.0 0.0 0.00 0.00 0.00 86 1023.9
20260901142253 58 1 0.0 0.0 0.00 0.00 0.00 86 1023.4
20260901141754 58 1 0.0 1.0 0.00 0.00 0.00 87 1023.4
20260901141513 57 5 0.0 1.0 0.00 0.00 0.00 87 1023.9
20260901141253 58 93 0.0 1.0 0.00 0.00 0.00 87 1023.2
20260901140754 58 133 0.0 0.0 0.00 0.00 0.00 86 1023.2
20260901140253 58 133 0.0 0.0 0.00 0.00 0.00 86 1023.2
20260901140021 58 134 0.0 0.0 0.00 0.00 0.00 85 1023.8
20260901135753 58 133 0.0 0.0 0.00 0.00 0.00 85 1023.1
20260901135253 58 132 0.0 0.0 0.00 0.00 0.00 85 1023.2
20260901134753 58 133 0.0 3.0 0.00 0.00 0.00 85 1023.2
20260901134524 57 129 0.0 3.0 0.00 0.00 0.00 85 1023.9
20260901134255 58 113 1.0 4.0 0.00 0.00 0.00 85 1023.2
20260901133253 57 128 0.0 1.0 0.00 0.00 0.00 87 1023.0
20260901133029 57 172 0.0 0.0 0.00 0.00 0.00 86 1023.6
20260901132754 57 172 0.0 0.0 0.00 0.00 0.00 86 1022.9
20260901131753 57 169 0.0 2.0 0.00 0.00 0.00 87 1022.6
20260901131509 57 266 0.0 0.0 0.00 0.00 0.00 86 1023.1
20260901130748 57 269 0.0 0.0 0.00 0.00 0.00 87 1022.5
20260901130248 57 269 0.0 0.0 0.00 0.00 0.00 87 1022.5
20260901130016 56 266 0.0 0.0 0.00 0.00 0.00 86 1022.9
20260901124745 57 266 0.0 0.0 0.00 0.00 0.00 87 1022.0
20260901124524 56 263 0.0 0.0 0.00 0.00 0.00 86 1022.7
20260901123235 57 266 0.0 0.0 0.00 0.00 0.00 86 1022.0
20260901123033 56 263 0.0 0.0 0.00 0.00 0.00 85 1022.5
20260901122231 57 266 0.0 0.0 0.00 0.00 0.00 85 1021.9
20260901121729 57 266 0.0 0.0 0.00 0.00 0.00 86 1021.9
20260901121530 57 263 0.0 0.0 0.00 0.00 0.00 85 1022.5
20260901121227 57 266 0.0 0.0 0.00 0.00 0.00 86 1021.9
20260901120224 57 266 0.0 0.0 0.00 0.00 0.00 86 1021.5
20260901120011 57 263 0.0 0.0 0.00 0.00 0.00 85 1022.2
20260901115222 57 266 0.0 0.0 0.00 0.00 0.00 86 1021.7
20260901114515 57 263 0.0 0.0 0.00 0.00 0.00 85 1022.3
20260901114220 57 264 0.0 0.0 0.00 0.00 0.00 86 1021.8
20260901113218 57 255 0.0 0.0 0.00 0.00 0.00 85 1021.8
20260901113024 57 252 0.0 0.0 0.00 0.00 0.00 84 1022.4
20260901112715 58 255 0.0 0.0 0.00 0.00 0.00 85 1021.9
20260901112215 58 255 0.0 0.0 0.00 0.00 0.00 85 1021.9
20260901111531 58 252 0.0 0.0 0.00 0.00 0.00 83 1022.6
20260901111210 58 255 0.0 0.0 0.00 0.00 0.00 84 1022.0
20260901110708 58 255 0.0 0.0 0.00 0.00 0.00 83 1022.3
20260901110205 58 255 0.0 0.0 0.00 0.00 0.00 83 1022.4
20260901110030 58 252 0.0 0.0 0.00 0.00 0.00 82 1023.1
20260901105201 58 242 0.0 0.0 0.00 0.00 0.00 82 1022.4
20260901104704 58 274 0.0 1.0 0.00 0.00 0.00 82 1022.3
20260901104516 58 283 0.0 1.0 0.00 0.00 0.00 83 1023.0
20260901104157 58 273 0.0 1.0 0.00 0.00 0.00 83 1022.4
20260901103651 58 53 1.0 3.0 0.00 0.00 0.00 83 1022.4
20260901103145 58 75 1.0 5.0 0.00 0.00 0.00 83 1022.4
20260901103020 58 85 0.0 6.0 0.00 0.00 0.00 83 1023.0
20260901102638 58 173 0.0 4.0 0.00 0.00 0.00 84 1022.6
20260901102134 58 108 0.0 2.0 0.00 0.00 0.00 85 1022.7
20260901101628 58 165 0.0 0.0 0.00 0.00 0.00 84 1023.1
20260901101529 58 165 0.0 0.0 0.00 0.00 0.00 84 1023.6
20260901101121 58 165 0.0 0.0 0.00 0.00 0.00 85 1023.0
20260901100615 58 165 0.0 0.0 0.00 0.00 0.00 84 1023.0
20260901100032 58 165 0.0 0.0 0.00 0.00 0.00 84 1023.4
20260901095603 58 165 0.0 0.0 0.00 0.00 0.00 84 1022.7
20260901095057 58 165 0.0 0.0 0.00 0.00 0.00 84 1022.6
20260901094724 58 165 0.0 0.0 0.00 0.00 0.00 83 1023.2
20260901094721 58 165 0.0 0.0 0.00 0.00 0.00 81 1023.0
20260901094717 58 165 0.0 0.0 0.00 0.00 0.00 79 1023.4
20260901094551 58 165 0.0 0.0 0.00 0.00 0.00 83 1022.6
20260901094044 58 165 0.0 0.0 0.00 0.00 0.00 83 1022.7
20260901093033 58 165 0.0 0.0 0.00 0.00 0.00 81 1022.5
20260901092527 58 165 0.0 0.0 0.00 0.00 0.00 81 1022.6
20260901092020 59 165 0.0 0.0 0.00 0.00 0.00 80 1022.7
20260901091515 59 165 0.0 0.0 0.00 0.00 0.00 80 1022.9
20260901091009 59 104 0.0 0.0 0.00 0.00 0.00 80 1022.9
20260901090503 58 104 0.0 0.0 0.00 0.00 0.00 80 1022.9
20260901090029 58 107 0.0 0.0 0.00 0.00 0.00 79 1023.6
20260901085956 58 104 0.0 0.0 0.00 0.00 0.00 79 1023.0
20260901084946 59 49 0.0 0.0 0.00 0.00 0.00 78 1023.1
20260901084530 58 55 0.0 0.0 0.00 0.00 0.00 77 1023.8
20260901083933 59 49 0.0 0.0 0.00 0.00 0.00 78 1023.2
20260901083427 59 49 0.0 0.0 0.00 0.00 0.00 77 1023.2
20260901083034 58 55 0.0 0.0 0.00 0.00 0.00 76 1023.9
20260901082921 59 49 0.0 0.0 0.00 0.00 0.00 77 1023.4
20260901082415 59 49 0.0 0.0 0.00 0.00 0.00 77 1023.4
20260901081910 59 49 0.0 0.0 0.00 0.00 0.00 77 1023.4
20260901081521 58 55 0.0 0.0 0.00 0.00 0.00 76 1024.0
20260901081403 59 49 0.0 0.0 0.00 0.00 0.00 77 1023.5
20260901080857 59 49 0.0 0.0 0.00 0.00 0.00 77 1023.4
20260901080351 59 49 0.0 0.0 0.00 0.00 0.00 77 1023.5
20260901080029 58 55 0.0 0.0 0.00 0.00 0.00 76 1024.1
20260901075846 59 49 0.0 0.0 0.00 0.00 0.00 76 1023.5
20260901075339 59 49 0.0 0.0 0.00 0.00 0.00 76 1023.5
20260901074532 59 97 0.0 5.0 0.00 0.00 0.00 75 1024.1
20260901074327 59 94 1.0 5.0 0.00 0.00 0.00 76 1023.6
20260901073822 59 89 1.0 5.0 0.00 0.00 0.00 76 1023.5
20260901073315 59 84 1.0 5.0 0.00 0.00 0.00 75 1023.5
20260901073042 59 90 0.0 4.0 0.00 0.00 0.00 75 1024.1
20260901072809 59 69 1.0 4.0 0.00 0.00 0.00 75 1023.5
20260901071757 59 80 1.0 5.0 0.00 0.00 0.00 74 1023.5
20260901071532 59 78 1.0 4.0 0.00 0.00 0.00 74 1024.0
20260901071251 59 75 2.0 4.0 0.00 0.00 0.00 74 1023.5
20260901070744 59 62 2.0 5.0 0.00 0.00 0.00 74 1023.4
20260901070032 58 86 2.0 5.0 0.00 0.00 0.00 76 1023.9
20260901065735 58 56 0.0 4.0 0.00 0.00 0.00 76 1023.4
20260901064734 59 71 0.0 1.0 0.00 0.00 0.00 75 1023.5
20260901064530 59 75 0.0 1.0 0.00 0.00 0.00 74 1024.1
20260901064231 59 77 0.0 1.0 0.00 0.00 0.00 75 1023.5
20260901063731 60 77 0.0 0.0 0.00 0.00 0.00 74 1023.4
20260901063232 60 77 0.0 0.0 0.00 0.00 0.00 74 1023.2
20260901063015 59 81 0.0 0.0 0.00 0.00 0.00 73 1023.8
20260901062729 60 77 0.0 0.0 0.00 0.00 0.00 73 1023.1
20260901061725 60 77 0.0 0.0 0.00 0.00 0.00 73 1023.2
20260901061514 60 81 0.0 0.0 0.00 0.00 0.00 72 1023.7
20260901060727 61 87 0.0 0.0 0.00 0.00 0.00 72 1023.2
20260901060036 60 91 0.0 0.0 0.00 0.00 0.00 71 1023.9
20260901055724 61 87 0.0 0.0 0.00 0.00 0.00 71 1023.4
20260901055222 61 144 0.0 0.0 0.00 0.00 0.00 71 1023.2
20260901054723 61 144 0.0 0.0 0.00 0.00 0.00 70 1023.2
20260901054525 61 146 0.0 0.0 0.00 0.00 0.00 70 1023.9
20260901053717 61 144 0.0 0.0 0.00 0.00 0.00 70 1023.4
20260901053212 61 144 0.0 0.0 0.00 0.00 0.00 70 1023.5
20260901053030 61 146 0.0 0.0 0.00 0.00 0.00 69 1024.1
20260901052705 61 129 0.0 0.0 0.00 0.00 0.00 70 1023.5
20260901052200 62 105 0.0 0.0 0.00 0.01 0.00 70 1023.4
20260901051511 61 172 0.0 0.0 0.00 0.03 0.00 69 1024.0
20260901051148 62 172 0.0 0.0 0.00 0.03 0.00 69 1023.6
20260901050643 62 172 0.0 0.0 0.00 0.03 0.00 69 1023.7
20260901050136 62 172 0.0 0.0 0.00 0.03 0.00 69 1023.7
20260901050018 62 172 0.0 0.0 0.00 0.03 0.00 68 1024.3
20260901045630 62 172 0.0 0.0 0.00 0.03 0.00 69 1023.7
20260901045124 62 146 0.0 0.0 0.00 0.03 0.00 69 1023.7
20260901044619 62 146 0.0 0.0 0.00 0.03 0.00 69 1023.7
20260901044526 61 147 0.0 0.0 0.00 0.03 0.00 69 1024.3
20260901043606 62 143 0.0 0.0 0.00 0.03 0.00 69 1023.7
20260901043031 61 162 0.0 0.0 0.00 0.03 0.00 69 1024.6
20260901042555 62 134 0.0 0.0 0.00 0.03 0.00 70 1023.8
20260901042048 62 134 0.0 0.0 0.00 0.04 0.00 70 1024.1
20260901041542 61 146 0.0 0.0 0.00 0.08 0.00 70 1024.0
20260901041538 61 147 0.0 0.0 0.00 0.08 0.00 70 1024.7
20260901041036 61 146 0.0 0.0 0.00 0.08 0.00 71 1023.8
20260901040530 61 91 0.0 0.0 0.00 0.08 0.00 72 1024.1
20260901040024 61 84 0.0 0.0 0.00 0.08 0.00 73 1024.1
20260901040014 60 88 0.0 0.0 0.00 0.08 0.00 73 1024.9
20260901035518 61 84 0.0 0.0 0.00 0.08 0.00 74 1024.1
20260901034521 61 19 0.0 0.0 0.00 0.08 0.00 73 1024.6
20260901034506 61 13 0.0 0.0 0.00 0.08 0.00 73 1024.0
20260901033454 62 13 0.0 0.0 0.00 0.08 0.00 72 1024.0
20260901033027 62 19 0.0 0.0 0.00 0.08 0.00 70 1024.7
20260901032949 62 13 0.0 0.0 0.00 0.08 0.00 71 1024.1
20260901032442 62 13 0.0 0.0 0.00 0.08 0.00 70 1024.0
20260901031935 63 13 0.0 0.0 0.00 0.08 0.00 70 1024.0
20260901031530 62 19 0.0 0.0 0.00 0.08 0.00 69 1024.7
20260901031430 63 13 0.0 0.0 0.00 0.08 0.00 69 1024.0
20260901030924 63 13 0.0 0.0 0.00 0.08 0.00 69 1023.8
20260901030031 63 34 0.0 0.0 0.00 0.08 0.00 67 1024.4
20260901025912 64 28 0.0 0.0 0.00 0.08 0.00 67 1023.7
20260901025406 64 60 0.0 0.0 0.00 0.08 0.00 66 1023.8
20260901024900 65 60 0.0 3.0 0.00 0.08 0.00 65 1024.1
20260901024517 65 86 0.0 3.0 0.00 0.08 0.00 63 1024.8
20260901024354 65 82 0.0 3.0 0.00 0.08 0.00 63 1024.0
20260901023848 66 338 0.0 3.0 0.00 0.08 0.00 61 1024.0
20260901023342 66 349 0.0 1.0 0.00 0.08 0.00 60 1023.6
20260901023023 66 242 0.0 2.0 0.00 0.08 0.00 59 1024.5
20260901022836 66 244 0.0 2.0 0.00 0.08 0.00 59 1023.6
20260901022331 66 231 0.0 2.0 0.00 0.08 0.00 59 1023.7
20260901021824 66 324 1.0 9.0 0.00 0.08 0.00 59 1023.7
20260901021534 66 185 0.0 9.0 0.00 0.08 0.00 58 1024.7
20260901021317 66 184 2.0 9.0 0.00 0.08 0.00 59 1023.8
20260901020812 67 127 4.0 9.0 0.00 0.08 0.00 58 1023.7
20260901020306 67 153 4.0 9.0 0.00 0.08 0.00 56 1023.5
20260901020029 68 123 3.0 10.0 0.00 0.08 0.00 53 1023.9
20260901015800 68 134 4.0 9.0 0.00 0.08 0.00 52 1023.0
20260901015254 69 152 2.0 9.0 0.00 0.08 0.00 49 1022.6
20260901014748 70 153 1.0 9.0 0.00 0.08 0.00 49 1022.4
20260901014535 70 151 2.0 5.0 0.00 0.08 0.00 48 1023.0
20260901014242 70 171 0.0 1.0 0.00 0.08 0.00 47 1021.9
20260901013736 70 165 0.0 1.0 0.00 0.08 0.00 47 1021.8
20260901013230 70 151 0.0 2.0 0.00 0.08 0.00 47 1021.7
20260901013020 70 156 0.0 2.0 0.00 0.08 0.00 46 1022.6
20260901012729 71 155 1.0 3.0 0.00 0.08 0.00 47 1021.7
20260901011729 71 104 2.0 5.0 0.00 0.08 0.00 46 1021.7
20260901011535 70 118 1.0 7.0 0.00 0.08 0.00 46 1022.5
20260901010725 71 98 2.0 6.0 0.00 0.08 0.00 46 1021.5
20260901010224 71 91 1.0 5.0 0.00 0.08 0.00 47 1021.4
20260901010045 71 126 2.0 4.0 0.00 0.08 0.00 45 1022.4
20260901005724 71 58 2.0 6.0 0.00 0.08 0.00 46 1021.5
20260901005224 71 100 2.0 6.0 0.00 0.08 0.00 46 1021.5
20260901004724 72 75 2.0 5.0 0.00 0.08 0.00 46 1021.5
20260901004535 71 103 1.0 9.0 0.00 0.08 0.00 45 1022.4
20260901004224 72 94 3.0 8.0 0.00 0.08 0.00 46 1021.5
20260901003724 72 92 4.0 9.0 0.00 0.08 0.00 43 1021.8
20260901003223 72 134 5.0 9.0 0.00 0.08 0.00 42 1021.8
20260901003037 72 125 5.0 10.0 0.00 0.08 0.00 42 1022.7
20260901002723 73 86 5.0 9.0 0.00 0.08 0.00 42 1021.7
20260901002222 73 111 4.0 9.0 0.00 0.08 0.00 42 1021.8
20260901001723 73 105 5.0 13.0 0.00 0.08 0.00 42 1021.7
20260901001528 72 86 3.0 14.0 0.00 0.08 0.00 42 1022.5
20260901001225 73 94 5.0 13.0 0.00 0.08 0.00 41 1021.7
20260901000724 73 63 5.0 13.0 0.00 0.08 0.00 41 1021.7
20260901000218 74 38 6.0 13.0 0.00 0.08 0.00 39 1021.7
20260901000030 74 95 7.0 14.0 0.00 0.08 0.00 39 1022.6
20260831235713 75 98 6.0 13.0 0.00 0.08 0.00 39 1021.8
20260831235206 76 44 5.0 13.0 0.00 0.08 0.00 37 1021.8
20260831234700 76 108 4.0 12.0 0.00 0.08 0.00 35 1021.8
20260831234532 76 113 1.0 14.0 0.00 0.08 0.00 34 1022.4
20260831234155 76 94 5.0 12.0 0.00 0.08 0.00 34 1021.7
20260831233648 77 133 5.0 11.0 0.00 0.08 0.00 34 1021.7
20260831233142 77 180 5.0 10.0 0.00 0.08 0.00 34 1021.8
20260831233042 76 148 4.0 11.0 0.00 0.08 0.00 33 1022.6
20260831232636 77 155 5.0 12.0 0.00 0.08 0.00 34 1021.8
20260831231624 77 119 6.0 13.0 0.00 0.08 0.00 34 1021.9
20260831231536 77 113 5.0 16.0 0.00 0.08 0.00 33 1022.7
20260831231118 77 142 5.0 13.0 0.00 0.08 0.00 34 1022.0
20260831230612 77 142 4.0 10.0 0.00 0.08 0.00 35 1022.0
20260831230106 77 146 3.0 10.0 0.00 0.08 0.00 34 1021.9
20260831230026 77 180 3.0 12.0 0.00 0.08 0.00 36 1022.7
20260831225600 77 97 3.0 9.0 0.00 0.08 0.00 35 1021.9
20260831225054 77 166 4.0 10.0 0.00 0.08 0.00 35 1022.0
20260831224548 78 162 3.0 10.0 0.00 0.08 0.00 32 1021.9
20260831224530 77 136 4.0 11.0 0.00 0.08 0.00 33 1022.5
20260831224042 78 158 2.0 8.0 0.00 0.08 0.00 35 1021.9
20260831223536 78 140 2.0 7.0 0.00 0.08 0.00 35 1021.9
20260831223032 78 152 2.0 11.0 0.00 0.08 0.00 33 1022.5
20260831222018 80 128 4.0 11.0 0.00 0.08 0.00 31 1022.0
20260831221538 80 111 3.0 12.0 0.00 0.08 0.00 31 1023.0
20260831221006 80 160 3.0 11.0 0.00 0.08 0.00 31 1022.3
20260831220500 80 159 4.0 10.0 0.00 0.08 0.00 32 1022.4
20260831220025 79 129 4.0 12.0 0.00 0.08 0.00 31 1023.0
20260831215954 79 197 4.0 10.0 0.00 0.08 0.00 31 1022.4
20260831215454 80 116 4.0 10.0 0.00 0.08 0.00 31 1022.4
20260831214954 80 144 4.0 10.0 0.00 0.08 0.00 31 1022.4
20260831214527 79 83 5.0 12.0 0.00 0.08 0.00 31 1023.2
20260831214455 79 90 4.0 10.0 0.00 0.08 0.00 32 1022.5
20260831213953 79 143 4.0 11.0 0.00 0.08 0.00 33 1022.5
20260831213454 79 148 4.0 11.0 0.00 0.08 0.00 32 1022.5
20260831213014 78 75 2.0 9.0 0.00 0.08 0.00 34 1023.3
20260831212955 79 68 4.0 8.0 0.00 0.08 0.00 34 1022.5
20260831212455 78 114 4.0 8.0 0.00 0.08 0.00 33 1022.6
20260831211953 78 167 3.0 8.0 0.00 0.08 0.00 34 1022.6
20260831211516 78 145 2.0 7.0 0.00 0.08 0.00 34 1023.4
20260831211454 79 143 2.0 6.0 0.00 0.08 0.00 34 1022.6
20260831210455 79 70 1.0 6.0 0.00 0.08 0.00 33 1022.9
20260831210025 79 128 0.0 7.0 0.00 0.08 0.00 36 1023.7
20260831205955 80 126 2.0 6.0 0.00 0.08 0.00 32 1022.9
20260831205455 81 106 2.0 6.0 0.00 0.08 0.00 32 1022.9
20260831204527 80 325 1.0 4.0 0.00 0.08 0.00 31 1023.8
20260831204454 81 291 1.0 4.0 0.00 0.08 0.00 32 1023.0
20260831203955 80 294 1.0 4.0 0.00 0.08 0.00 32 1023.0